Погода Нижний Тагил

Погода Нижний Тагил : погода сейчас, прогноз погоды и архив. Всё, что Вы хотите узнать о погоде Нижний Тагил!

Хотите узнать прогноз погоды Нижний Тагил? Тогда Вам сюда: Погода Нижний Тагил

Поиск расширенной информации на нашем сайте:

Другие новости

Новости СМИ2

Главная страница сайта

Новости сайта

02.10.2013

Напоминаем, что на нашем новом сайте вы можете получить высокодетализированные прогнозы погоды по пунктам России, СНГ и мира (включающие важные для авиации метеовеличины, такие как направление и скорость ветра, видимость, явления погоды, количество и форма облачности, нижняя и верхняя граница облачности), а также ознакомиться с разнообразными материалами по авиационной метеорологии и подборкой полезных ссылок на эту тему.

Сайт Метеоцентр.Азия посвящён разработке технологий оптимизации авиаметеорологического обслуживания, включая проектирование и перспективное создание нескольких автоматизированных авиаметеорологических систем:
- система выпуска высокодетальных прогностических карт явлений погоды для нижнего воздушного пространства по России и ближнему зарубежью;
- система верификации прогнозов TAF (выпускаемых синоптиками официальных АМСГ РФ и ближнего зарубежья) и AUTOTAF (выпускаемых сайтом Метеоцентр.Азия) - выявление ошибок, онлайн-сопоставление с фактической погодой METAR, автоматическое внесение коррективов в прогнозы при резком отклонении фактической погоды от прогноза, подсчёт оправдываемости прогнозов по элементам и в целом;
- система обработки, анализа и отображения авиаметеорологической информации для применения провайдерами метеорологической информации.

Рекомендуем: Сравнить цены на лазерная гравировка.

Погода Нижний Тагил - сегодня

Время (UTC), дата Ветер
(°,м/с) 
Видим.   Явления Облачность Т
(°С)
Тd
(°С)
f(%) Тe
(°С)
Pmin
(гПа)
dP
(гПа)
Po
(мм)
O2
(г/м3)
Тmin Tmax R s Состояние
почвы
06 24.05.17 260 (З) 20000 м    4/0 средняя 
[Ac lent]
+9.9 -3.4 39 +9  1007.6  0.3  732  285           
09 24.05.17 260 (З) 5{11}  20000 м    8/0 кучево-дожд. 
[Cb cap]
+12.5 -4.8 30 +12  1006.5  -0.8  732  282           
12 24.05.17 280 (З) 6-12{14}  10 км  слаб. ливневой дождь  10/10 600 м кучево-дожд. 
[Cb cap]
+10.8 +1.3 52 +9  1007.2  0.6  732  284           
15 24.05.17 300 (СЗ) 6-10{15}  4000 м  слаб. ливневой дождь  10/10 600 м кучево-дожд. 
[Cb cap]
+6.7 +5.3 91 +5  1008.5  0.8  733  287    +13.9     
18 24.05.17 270 (З) 20000 м  {ливн. осадки}  3/0 средняя 
[Ac lent]
+5.8 +3.7 86 +5  1009.7  1.1  734  289           
21 24.05.17 300 (СЗ) 20000 м    ясно 
+3.7 +0.4 79 +2  1012.2  2.2  735  292           
00 25.05.17 280 (З) 20000 м    ясно 
+1.5 -0.9 84 +1  1014.9  2.3  737  295           
03 25.05.17 310 (СЗ) 20000 м    3/0 средняя 
[Ac lent]
+3.9 -2.8 62 +2  1016.7  2.1  739  294  +1.5        влажная 
06 25.05.17 270 (З) 5{10}  20000 м    3/0 средняя 
[Ac lent]
+7.1 -5.7 40 +5  1017.1  0.7  739  291           
09 25.05.17 290 (З) 20000 м    ясно 
+11 -5.5 31 +10  1017.1  0.4  739  287           
12 25.05.17 290 (З) 4{10}  20000 м    ясно 
+13.3 -5.3 27 +13  1017  0.1  740  285           
15 25.05.17 270 (З) 20000 м    ясно 
+12.9 -5.6 27 +13  1017.3  0.3  740  285    +13.6       
18 25.05.17 110 (В) 20000 м    ясно 
+2.2 -2 74 +3  1019.4  0.8  740  296           
21 25.05.17 110 (В) 20000 м    ясно 
-0.6 -2.7 86 -1  1020.4  0.6  741  299           
00 26.05.17 110 (В) 20000 м    ясно 
-1.6 -3 90 -3  1019.8  -0.7  740  300           
03 26.05.17 140 (ЮВ) 20000 м    8/0 средняя 
[Ac lent]
+11.7 -0.5 43 +12  1016.7  -1.5  739  286  -1.7        замёрзшая 
06 26.05.17 130 (ЮВ) 20000 м  в посл. час ливневой дождь  10/10 600 м кучево-дожд. 
[Cb cap]
+9.4 +5.6 77 +8  1015.4  -1.5  738  287           
09 26.05.17 190 (Ю) 5{11}  20000 м    6/4 600 м верхняя 
[Sc|Ci fib]
+19.6 +8.6 49 +20  1012.1  -2  737  275           
12 26.05.17 220 (ЮЗ) 2{18}  10 км  гроза, ливневой дождь  10/10 600 м кучево-дожд. 
[Cb cap]
+16 +11.8 76 +21  1011.3  -1.2  736  278           
18 26.05.17 120 (ЮВ) 20000 м  гроза без осадков{ливн. осадки}  10/10 600 м кучево-дожд. 
[Cb cap]
+11.9 +10.3 90 +14  1010.4  0.1  735  282           
21 26.05.17 200 (Ю) 20000 м  {гроза, ливн. осадки}  9/9 600 м кучево-дожд. 
[Cb cap]
+12.7 +8.9 78 +13  1009.2  -1  734  281           
00 27.05.17 100 (В) 20000 м  {гроза, ливн. осадки}  9/0 средняя, верхняя 
[Ac trans|Ci fib]
+8.2 +6.8 91 +8  1009  -0.7  733  286           
03 27.05.17 230 (ЮЗ) 20000 м    10/0 средняя, верхняя 
[Ac trans|Cc]
+17.6 +9.4 59 +20  1007.1  -0.8  733  276  +8    0.3    сухая 
06 27.05.17 200 (Ю) 20000 м    8/0 средняя, верхняя 
[Ac lent|Cs]
+21.2 +8.6 44 +21  1005.5  -1.2  732  272           
09 27.05.17 220 (ЮЗ) 20000 м    9/8 600 м кучево-дожд., средняя 
[Cb cap|Ac und]
+21.3 +7.4 41 +21  1003.8  -1.6  731  272           
Время (UTC), дата Ветер
(°,м/с) 
Видим.   Явления Облачность Т
(°С)
Тd
(°С)
f(%) Тe
(°С)
Pmin
(гПа)
dP
(гПа)
Po
(мм)
O2
(г/м3)
Тmin Tmax R s Состояние
почвы

Для получения пояснительной информации подведите курсор к названию столбца.

ПОГОДА Нижний Тагил - архив

Всё, что Вы хотите узнать о погоде Нижний Тагил - удобно и подробно!

Выберите нужную дату (начиная с 1 января 2015* года) и нажмите кнопку "Найти".
Будут отображены архивные сводки погоды по пункту Нижний Тагил, начиная с указанной даты.


Отображать данные в формате CSV (для использования в таблицах Excel)


Внимание! Наш архив погоды предназначен исключительно для личного некоммерческого использования в познавательных целях. Если Вам необходимы официальные справки о состоянии погоды (для производственных, юридических, коммерческих и т.п. целей), обращайтесь в органы Росгидромета.

*Примечание: данная дата относится к архиву по метеостанциям СССР (Россия, СНГ, Балтия).
Архив по метеостанциям Зарубежной Европы и Азии (кроме Китая) хранится 10 дней, по другим регионам земного шара (Китай, Африка, Америка, Австралия, Океания) - 1 день.

Нижний Тагил - район местоположения метеостанции


Название, широта, долгота, высота метеостанции:
Нижний Тагил 57.9°ш. 60.1°д. 260 м над ур. моря [Российская Федерация]

Дополнительная информация

В oтличие oт бoльшинства пoгoдных сайтoв мы публикуем пoдрoбную метеoинфoрмацию в детальнoм прoфессиoнальнoм фoрмате.

Характеристики температуры и влажнoсти вoздуха измеряются на высoте 2 м в тени вдали oт зданий и деревьев.
Скoрoсть ветра измеряется на высoте 10 м (на урoвне рoста челoвека скoрoсть ветра ниже в 1.5-2 раза). Если метеoстанция нахoдится в гoрoде или в лесу, тo скoрoсть ветра занижена на 2-4 м/с пo сравнению с oткрытым местoм. Скoрoсть ветра над акватoриями крупных рек и oзёр, а также на вершинах хoлмoв на 2-5 м/с выше, чем в oбычных услoвиях.
Атмoсфернoе давление в разных тoчках местнoсти мoжет значительнo oтличаться oт давления на метеoстанции, в зависимoсти oт услoвий рельефа (при пoдъёме на 10 м давление пoнижается примернo на 1 мм рт.ст.).